This is the latest recevied weather packets stored in our database for station/object KY4OP-13. If no packets are shown the sender has not sent any weather packets the latest 10 day(s).
| Time | Temp. | Humidity | Pressure | Rain* | Wind** | Luminosity | Snow |
|---|---|---|---|---|---|---|---|
| 1777816744 | 10° C | 43% | 1020.3 hPa | 0 mm | - | - | - |
| 1777816443 | 10° C | 42% | 1020.5 hPa | 0 mm | - | - | - |
| 1777816140 | 10° C | 43% | 1020.3 hPa | 0 mm | - | - | - |
| 1777815838 | 10.56° C | 44% | 1020.3 hPa | 0 mm | - | - | - |
| 1777815535 | 10.56° C | 46% | 1020.1 hPa | 0 mm | - | - | - |
| 1777815232 | 10° C | 47% | 1020.2 hPa | 0 mm | - | - | - |
| 1777814928 | 10° C | 45% | 1020.2 hPa | 0 mm | - | - | - |
| 1777814625 | 9.44° C | 45% | 1020.2 hPa | 0 mm | - | - | - |
| 1777814322 | 9.44° C | 48% | 1020.2 hPa | 0 mm | - | - | - |
| 1777814018 | 8.89° C | 46% | 1020.2 hPa | 0 mm | - | - | - |
| 1777813716 | 8.89° C | 47% | 1020.2 hPa | 0 mm | - | - | - |
| 1777813413 | 8.33° C | 48% | 1020.1 hPa | 0 mm | - | - | - |
| 1777813110 | 8.33° C | 49% | 1020.2 hPa | 0 mm | - | - | - |
| 1777812808 | 8.33° C | 50% | 1020.2 hPa | 0 mm | - | - | - |
| 1777812504 | 7.78° C | 48% | 1020.3 hPa | 0 mm | - | - | - |
| 1777812202 | 7.78° C | 50% | 1020.2 hPa | 0 mm | - | - | - |
| 1777811900 | 7.78° C | 50% | 1020.2 hPa | 0 mm | - | - | - |
| 1777811599 | 7.78° C | 51% | 1020.5 hPa | 0 mm | - | - | - |
| 1777811299 | 7.22° C | 53% | 1020.1 hPa | 0 mm | - | - | - |
| 1777810997 | 7.22° C | 54% | 1019.9 hPa | 0 mm | - | - | - |
| 1777810694 | 7.22° C | 53% | 1020.2 hPa | 0 mm | - | - | - |
| 1777810390 | 7.22° C | 55% | 1020.1 hPa | 0 mm | - | - | - |
| 1777810086 | 7.22° C | 56% | 1020.2 hPa | 0 mm | - | - | - |
| 1777809784 | 6.67° C | 52% | 1020.1 hPa | 0 mm | - | - | - |
| 1777809481 | 6.67° C | 54% | 1019.9 hPa | 0 mm | - | - | - |
* Rain latest hour (hover to see other rain measurements)
** Current wind speed in m/s (hover to see current wind gust speed)